sat.trackr.live / text

‹ back to catalog

STARLINK-2395

NORAD 47814 · 2021-018AD

PAYLOAD ACTIVE UNKNOWN

§ Identity

Operator
Country
US
Launch date
2021-03-11
Launch site
AFETR
Launch vehicle
Mass (kg)
RCS (m²)

Purposes: comms

External: N2YO · Heavens-Above · Gunter

§ Orbital elements

Epoch: 2026-05-24T18:28:59.423808Z

Period
94.01 min
Inclination
53.1578°
Eccentricity
0.0001100
Mean motion
15.31719227 rev/d
Perigee alt
469.9 km
Apogee alt
471.4 km
Semi-major
6,848.8 km
B*
1.6294e-4
RAAN
248.9691°
Arg perigee
81.7869°
Mean anomaly
278.3257°
Rev number
28,844

§ Raw data

STARLINK-23951 47814U 21018AD  26144.77013222  .00004697  00000+0  16294-3 0  99972 47814  53.1578 248.9691 0001100  81.7869 278.3257 15.31719227288443

JSON: /api/v1/satellites/47814 · /tle

For live sub-satellite position, see the globe view (requires WebGL).

§ Visibility from observer

Set your observer location to see the next 7 days of passes ≥ 10°. The values pass through the URL so the page stays shareable.

No JS? Fill the form by hand. The geolocation button needs JavaScript.